User: anonymous   Login
Location: Unspecified
(0.0000°N, 0.0000°E)
Time: 17:29:16
(UTC+02:00)
Language:

Cosmos 2219 - Orbit

View from above orbital plane
View from above orbital plane
View from above satellite
View from above satellite

Ground track
Ground track

The orbit data is extracted from the following two-line orbital elements,

1 22219U 92076A   16274.78490962 -.00000222  00000-0 -92781-4 0  9994
2 22219  71.0610  19.5638 0016055  61.6943 298.5797 14.13590182231558
Epoch (UTC): 30 September 2016 18:50:16
Eccentricity: 0.0016055
inclination: 71.0610°
perigee height: 835 km
apogee height: 859 km
right ascension of ascending node: 19.5638°
argument of perigee: 61.6943°
revolutions per day: 14.13590182
mean anomaly at epoch: 298.5797°
orbit number at epoch: 23155

The dashed part of the orbit path shows where the satellite is in the earth's shadow,  

DLR